Preview of NWS' New Version of Forecast
This preview is not operational and should not be used for support decisions.

Regional Weather Roundup (RWR)

Issued by Philadelphia/Mt Holly (PHI)

                            
000
ASUS41 KPHI 171412
RWRPHI

REGIONAL WEATHER ROUNDUP
NATIONAL WEATHER SERVICE MOUNT HOLLY NJ
1000 AM EDT TUE SEP 17 2019

NOTE:  "FAIR" INDICATES FEW OR NO CLOUDS BELOW 12,000 FEET WITH NO
SIGNIFICANT WEATHER AND/OR OBSTRUCTIONS TO VISIBILITY.

 * = STATION DOES NOT REPORT PRECIPITATION (E.G. RAIN, SNOW, ETC.) 
        OR FOG.

NJZ015>026-171500-
SOUTHERN NEW JERSEY
  
CITY           SKY/WX    TMP DP  RH WIND       PRES   REMARKS
POMONA         FAIR      73  54  51 E15G23    30.13R                  
WILDWOOD*      FAIR      74  59  59 E10       30.12R                  
MILLVILLE      FAIR      72  53  51 E13G22    30.13R                  
WRIGHTSTOWN    FAIR      72  50  46 NE13      30.15R                  
MOUNT HOLLY    FAIR      71  53  52 VRB5      30.15R                  
TRENTON        FAIR      68  51  54 NE8       30.16R                  

$$
NJZ001>014-171500-
NORTHERN NEW JERSEY
  
CITY           SKY/WX    TMP DP  RH WIND       PRES   REMARKS
SUSSEX         FAIR      65  50  58 VRB5      30.18S                  
ANDOVER*         N/A     64  53  67 VRB6      30.19R                  
MORRISTOWN     SUNNY     66  55  68 E5        30.17S                  
NEWARK         FAIR      68  49  50 NE9       30.16R                  
TETERBORO      FAIR      68  48  48 NE8       30.15S                  
CALDWELL       FAIR      69  52  54 NW6       30.18R                  
SOMERVILLE     FAIR      69  48  47 VRB5      30.15S                  
ALLAIRE*       FAIR      68  50  52 E12       30.16R                  
TOMS RIVER*    FAIR      71  53  52 NE15      30.16R                  

$$
PAZ043-044-047-054-055-060>062-066>071-171500-
EASTERN PENNSYLVANIA
  
CITY           SKY/WX    TMP DP  RH WIND       PRES   REMARKS
PHILADELPHIA   FAIR      71  50  47 E10G18    30.15R                  
NORTH PHILA    FAIR      72  49  44 NE12      30.17R                  
BLUE BELL*     PTSUNNY   68  53  58 E7        30.17R                  
DOYLESTOWN     FAIR      70  50  49 VRB7      30.16R                  
QUAKERTOWN*    SUNNY     68  52  56 NE6       30.18                   
PERKASIE*      FAIR      66  50  55 E6        30.18S                  
POTTSTOWN      FAIR      67  52  58 NE7       30.18R                  
LANCASTER      FAIR      71  56  58 NE9       30.16R                  
COATESVILLE    FAIR      68  55  64 CALM      30.18R                  
WEST CHESTER   FAIR      70  52  52 NE7       30.17R                  
READING        NOT AVBL                                               
ALLENTOWN      FAIR      67  50  54 E8        30.18R                  
QN CITY/ALNTWN FAIR      64  52  63 NE5       30.19S                  
MOUNT POCONO   FAIR      62  47  57 NE6       30.20S                  
HAZLETON       FAIR      63  46  55 E3        30.24R                  
LEHIGHTON      FAIR      64  50  59 E5        30.20S                  
WILKES BARRE   FAIR      62  50  64 NW3       30.21R                  

$$
DEZALL-MDZ008-012-015-019-020-171500-
DELAWARE AND EASTERN MARYLAND
  
CITY           SKY/WX    TMP DP  RH WIND       PRES   REMARKS
WILMINGTON     FAIR      72  53  51 E14       30.15R                  
DOVER          PTSUNNY   72  58  60 NE9       30.16R                  
CHESWOLD       PTSUNNY   70  59  68 E13       30.13R                  
GEORGETOWN     FAIR      75  61  61 E15       30.11R                  
STEVENSVILLE   CLOUDY    72  59  64 E13G18    30.11S                  
ABERDEEN       PTSUNNY   73  55  53 E12       30.14                   
PATUXENT       LGT RAIN  70  65  84 E9        30.08                   
OCEAN CITY     PTSUNNY   73  62  68 E15G22    30.09R                  
WALLOPS ISLAND PTSUNNY   75  61  61 E16G25    30.07R                  
CAMBRIDGE      PTSUNNY   73  63  68 NE10      30.09R                  
SALISBURY      PTSUNNY   74  61  63 E10       30.08R                  

$$
PAZ001-021-NYZ056-072-MDZ011-DCZ001-171500-
OTHER NEARBY LOCATIONS
  
CITY           SKY/WX    TMP DP  RH WIND       PRES   REMARKS
HARRISBURG     FAIR      68  52  56 NE8       30.16R                  
WILLIAMSPORT   FAIR      64  50  60 VRB5      30.19S                  
BINGHAMTON     FAIR      59  48  67 VRB5      30.23R                  
NEW YORK CITY  FAIR      68  49  50 NE8       30.18S                  
BALTIMORE      CLOUDY    75  56  51 E14       30.12R                  
WASHINGTON DC  CLOUDY    75  67  76 NE13      30.11R                  

$$